Wind_Speed
21 19 19 19 19 20 18 18 18 16 15 13 11 13 14 16 17 17 17 17 18 20 20 23 27 22 18 16 10 11 15 14 12 17 28 37 31 21 18 19 19 16 15 13 11 13 14 15 16 16 17 15 13 13 11 9 9 8 7 7 7 7 8 8 7 8 9 10 11 10 9 10 11 10 10 12 14 14 12 13 14 15 17 15 14 14
24 19 17 20 21 21 20 19 19 18 17 16 15 15 14 15 14 16 17 16 15 19 19 21 26 23 18 16 13 13 16 17 15 13 19 31 31 25 20 19 20 17 16 13 11 13 13 14 14 14 16 14 12 12 11 10 10 9 8 8 8 7 8 9 8 9 9 10 10 10 10 11 11 11 11 13 15 15 13 12 13 16 16 15 15 14
26 21 19 22 23 22 21 20 20 19 19 18 17 18 17 16 15 16 15 12 13 21 23 23 26 22 17 14 13 10 13 17 16 12 11 21 29 31 22 15 19 20 17 14 12 12 12 13 13 13 14 13 12 11 10 11 10 10 9 8 9 9 9 10 11 11 11 11 11 10 11 11 11 12 13 13 14 15 16 15 15 16 16 16 15 15
26 23 20 20 21 21 20 20 20 20 20 19 19 20 19 17 16 19 16 12 12 17 21 26 27 22 15 12 10 10 14 18 17 9 5 15 25 27 23 19 21 22 19 15 12 11 13 13 13 12 12 12 11 10 10 11 9 10 10 9 10 10 10 11 12 14 13 12 12 10 9 10 10 12 13 13 14 15 17 17 16 16 17 17 17 17
28 22 17 13 14 18 19 20 21 21 22 20 20 20 19 18 18 22 21 16 16 22 24 24 25 22 17 17 14 10 10 10 12 10 8 17 24 21 22 23 20 20 21 16 11 11 13 13 14 12 10 10 11 11 11 10 10 9 9 9 10 11 11 11 13 14 13 12 12 11 8 8 10 11 11 11 12 13 15 17 16 16 18 19 19 18
28 24 19 16 17 19 22 21 20 22 23 21 20 18 17 18 19 22 22 19 18 21 22 19 21 22 17 17 19 17 14 12 12 14 15 16 19 19 20 21 20 19 20 17 11 10 12 12 14 12 9 8 9 10 10 10 10 9 9 9 9 9 10 11 12 12 12 12 12 11 9 8 8 9 9 9 11 13 15 17 18 19 20 20 19 18
28 23 21 20 20 20 23 22 19 22 25 22 20 17 17 18 18 20 22 21 21 20 19 15 17 23 19 15 19 19 16 13 15 16 14 14 14 16 17 21 25 21 17 16 9 8 10 11 13 12 9 7 7 9 9 9 10 9 9 9 8 9 10 10 11 11 11 11 11 11 9 8 8 8 9 9 11 13 15 17 19 20 20 20 19 18
27 24 21 21 23 23 21 19 18 21 23 20 20 18 17 19 19 22 23 23 23 22 21 18 18 23 22 16 17 20 18 13 11 17 17 14 12 12 14 17 24 24 19 15 10 8 10 11 11 11 9 6 6 7 8 8 8 8 9 9 9 10 10 10 10 10 11 10 11 10 9 8 8 9 8 8 9 10 12 14 16 17 17 18 18 19
28 28 24 20 21 23 21 18 19 21 20 18 19 19 18 21 23 23 24 25 24 24 24 21 18 20 23 19 16 21 22 13 10 20 20 11 11 8 9 11 19 25 21 17 15 11 10 12 12 11 9 8 5 5 6 7 7 8 8 9 10 10 11 11 10 10 10 10 11 10 9 8 8 8 8 8 7 8 10 12 14 15 16 17 18 19
30 28 27 24 22 21 18 16 17 19 19 18 21 22 21 22 23 23 26 27 25 26 27 24 20 22 24 20 15 18 20 16 16 21 18 7 4 9 13 13 17 21 20 20 19 14 11 12 13 12 10 9 7 4 4 5 6 6 7 8 9 10 10 11 12 11 10 9 10 10 9 9 8 8 7 7 7 7 8 10 13 15 17 18 18 19
31 27 29 31 28 26 25 22 21 21 23 23 25 27 25 25 25 25 24 22 21 26 27 22 19 21 22 22 19 19 19 20 18 14 14 15 14 16 20 17 15 17 20 21 20 17 13 12 14 15 13 11 10 7 5 5 5 5 6 7 8 9 10 11 12 12 12 10 9 9 9 9 8 8 7 6 7 8 8 9 11 15 15 16 18 18
35 30 31 32 30 31 34 34 32 31 30 30 29 27 26 26 26 25 23 21 23 26 22 17 16 18 22 21 15 13 14 17 19 19 21 23 19 19 23 21 18 18 20 20 21 23 19 14 14 18 17 15 14 12 9 7 6 6 6 6 6 7 8 10 11 12 13 12 9 8 9 10 9 8 7 5 6 7 7 6 7 12 14 15 16 17
33 29 27 27 24 23 26 28 28 30 29 27 25 23 23 24 24 23 23 23 25 24 19 18 19 19 21 18 7 7 12 14 17 23 25 26 23 22 23 24 24 24 23 21 21 24 23 16 14 17 19 17 16 17 15 11 9 7 7 7 6 6 7 8 9 11 12 12 11 9 8 10 10 9 8 6 6 6 6 4 1 7 11 11 13 15
29 27 25 24 22 20 20 19 21 23 23 20 20 21 21 21 22 22 22 23 23 22 21 23 23 22 22 19 13 17 23 22 22 24 24 26 27 25 24 25 26 29 30 28 25 26 27 20 14 16 19 17 17 18 18 16 14 11 9 9 8 7 7 7 8 9 10 11 12 11 9 9 10 10 9 7 6 6 5 4 1 3 6 7 7 8
30 30 28 29 29 27 25 22 21 20 19 21 22 23 23 23 24 24 24 24 24 25 25 24 24 24 24 22 18 22 29 31 31 29 27 29 29 28 29 28 28 29 32 32 29 28 30 24 18 18 19 18 19 20 20 19 18 16 13 11 10 10 9 8 8 8 9 11 11 11 10 9 9 9 9 8 7 6 5 4 3 3 5 6 6 4
32 32 31 32 33 33 31 27 24 24 22 22 22 23 26 26 26 28 28 28 28 30 31 28 26 27 26 24 22 24 28 32 34 32 28 28 27 23 21 21 21 22 25 28 28 27 28 27 23 21 20 20 20 21 22 22 21 19 17 13 12 12 12 11 10 8 9 10 11 11 11 9 8 8 8 8 7 7 7 6 5 6 6 7 7 6
36 37 35 35 35 35 35 30 28 30 28 25 25 26 28 27 26 28 31 31 32 33 34 31 30 29 27 25 27 29 30 32 34 31 26 26 25 18 15 15 15 15 18 21 23 25 27 28 26 23 22 22 22 23 24 24 24 23 20 16 14 14 14 14 13 11 10 10 11 11 11 10 9 8 8 8 8 8 9 9 8 8 8 7 8 8
37 39 37 36 36 37 38 35 34 36 37 34 31 30 30 29 26 26 30 33 34 36 37 35 34 33 29 26 29 33 32 32 35 35 30 27 26 23 20 19 18 18 19 20 20 22 25 28 29 28 25 25 27 27 26 26 27 27 23 19 16 15 16 16 16 14 12 11 11 11 12 11 10 9 8 7 7 7 9 10 10 10 9 9 9 9
37 41 39 35 37 37 37 37 37 39 40 35 30 31 33 35 32 30 33 34 35 38 40 38 36 33 30 28 30 33 34 33 35 36 31 26 25 26 27 25 24 24 22 20 19 19 21 25 29 30 29 28 29 29 28 26 27 29 27 22 19 18 17 17 17 17 15 13 12 11 12 12 11 11 10 8 7 6 7 9 11 11 11 10 9 9
37 41 42 38 36 35 37 39 38 37 38 35 34 35 36 38 40 38 38 38 38 40 41 39 35 30 28 29 31 33 36 37 35 32 31 31 29 27 28 28 27 25 22 20 19 19 20 22 26 29 30 29 29 30 30 28 28 29 28 26 24 22 19 18 18 18 17 15 13 12 12 14 13 12 11 10 8 5 5 6 9 10 10 10 9 9
39 42 45 43 37 36 40 42 40 40 39 35 32 31 29 33 38 38 39 38 36 37 37 38 36 31 30 33 33 33 37 39 36 33 35 39 35 28 28 29 28 27 25 22 19 19 19 20 23 26 28 29 30 31 31 31 30 29 28 29 29 27 23 21 20 19 19 18 16 14 13 14 15 14 13 12 9 6 5 5 6 8 9 9 9 9
42 44 46 46 40 37 39 41 40 39 34 26 26 30 33 36 37 36 38 38 34 34 34 35 34 32 32 34 34 34 36 36 35 35 36 37 37 36 35 32 30 30 29 26 23 22 21 21 23 26 28 29 30 32 33 32 32 32 32 33 34 32 28 25 22 21 21 20 18 16 15 14 15 15 15 13 11 9 6 6 6 7 8 8 9 9
45 47 48 47 42 38 39 40 40 39 34 31 36 40 40 41 42 41 42 41 39 40 41 40 40 39 38 37 37 38 39 37 36 37 36 35 37 40 37 33 33 33 31 30 30 27 25 24 25 26 28 29 30 33 35 34 34 36 38 37 38 37 33 30 28 24 22 21 20 19 17 16 15 16 16 15 14 11 9 8 8 8 8 8 9 9
47 47 47 46 44 42 41 41 42 42 42 43 47 48 45 44 45 44 43 44 45 47 48 48 49 48 45 42 41 43 44 42 40 40 40 38 39 42 41 40 38 35 32 31 31 33 31 29 28 26 25 27 28 31 34 37 38 39 39 37 35 36 35 33 31 28 24 22 22 21 20 18 17 17 17 17 17 15 12 10 10 9 9 9 9 9
48 47 47 47 47 46 45 43 42 41 41 43 48 51 51 48 46 46 46 48 51 51 50 51 51 49 48 46 43 44 47 48 45 44 43 43 44 45 45 47 45 38 35 35 35 38 39 38 36 33 30 30 32 32 34 37 40 41 40 37 34 35 37 34 30 28 26 24 23 23 22 21 20 19 18 19 19 18 15 13 12 12 11 11 11 10
48 48 48 49 50 49 48 44 41 41 42 46 51 53 50 47 46 46 46 48 50 49 48 50 51 50 49 49 47 47 48 50 49 48 47 45 47 48 48 52 52 46 42 43 42 42 43 42 41 40 38 38 39 39 39 40 41 42 41 39 37 38 38 34 28 26 25 25 24 24 24 24 23 22 21 21 21 21 18 16 15 15 14 13 13 12
51 51 51 52 52 52 51 48 47 48 48 51 55 54 51 50 49 46 46 48 48 47 48 48 48 48 48 48 49 47 47 49 50 50 50 49 52 54 52 53 56 53 49 49 49 47 46 45 44 45 45 44 44 45 44 45 45 44 43 42 41 41 38 34 32 30 28 27 26 26 27 27 26 25 24 23 23 23 21 19 18 17 17 16 16 15
53 54 54 54 55 55 54 53 52 52 52 53 55 56 55 54 53 53 54 54 53 54 56 53 51 52 50 47 48 49 48 50 50 50 51 53 54 56 55 55 58 59 55 54 56 54 51 48 44 44 47 48 48 48 49 49 50 49 46 45 45 43 40 37 36 36 33 30 29 29 29 30 30 29 28 27 26 25 24 22 21 20 20 19 18 18
56 56 56 56 57 58 57 56 55 54 55 55 55 56 56 56 56 57 57 56 56 58 59 56 56 57 56 53 54 53 53 52 52 53 53 53 54 57 59 61 62 63 61 59 61 61 57 53 49 47 49 51 51 52 54 55 54 52 50 49 48 46 44 42 39 37 35 33 32 32 32 33 34 33 32 31 28 27 26 25 25 24 23 22 21 21
61 60 57 57 59 59 58 58 58 58 57 57 57 56 56 57 57 57 58 57 56 56 56 56 57 59 59 59 58 57 56 56 57 59 58 57 59 61 63 64 65 67 68 65 65 66 64 62 60 57 55 56 56 56 58 60 59 57 55 53 50 49 47 45 44 43 42 39 36 36 37 37 36 36 36 35 31 28 27 27 27 28 26 25 25 24
63 63 61 59 59 58 57 57 58 57 57 57 58 58 58 58 57 57 56 55 55 56 56 55 59 61 58 57 58 59 60 60 61 63 63 63 65 65 65 66 67 69 70 69 69 70 69 69 69 65 62 62 62 61 62 64 65 64 61 58 54 50 49 49 48 46 45 44 42 41 42 41 39 37 38 39 35 32 29 28 29 30 30 29 28 27
64 66 65 64 63 61 59 57 56 55 55 58 60 60 58 56 55 54 53 53 55 57 57 57 59 60 57 56 58 60 61 62 63 64 64 64 67 68 66 66 67 67 68 69 71 71 71 73 74 72 69 69 68 67 67 68 69 70 67 63 59 53 50 51 53 50 49 50 49 46 44 43 41 39 38 39 38 35 33 31 30 31 31 31 31 30
64 65 65 66 66 65 62 59 55 53 57 62 61 57 54 52 52 52 52 53 55 56 57 58 57 56 54 55 57 58 59 60 61 62 63 65 66 66 64 64 65 66 68 69 69 70 72 74 76 76 76 75 74 73 72 72 72 74 72 68 65 60 53 53 58 59 56 54 52 48 45 43 41 40 38 37 38 38 36 34 32 31 31 33 33 32
64 63 63 63 63 64 64 59 53 55 63 64 56 50 50 51 52 52 52 52 53 53 54 55 53 51 51 52 53 54 55 56 57 59 62 63 61 60 61 63 64 67 69 69 69 70 73 75 77 79 80 81 81 78 76 75 75 76 76 74 71 66 59 56 61 64 60 55 52 50 47 43 40 39 39 38 38 38 38 36 33 32 32 33 33 33
63 61 60 59 58 60 61 57 54 59 65 61 54 51 52 52 50 51 52 51 51 51 51 51 51 50 51 50 50 52 53 53 54 57 58 58 57 57 60 62 64 66 68 69 71 73 76 78 81 83 84 86 86 82 77 75 75 76 79 78 74 70 65 61 62 65 62 55 52 52 50 46 41 38 39 39 38 39 39 38 35 34 33 33 33 33
61 59 57 56 55 56 58 59 59 62 61 58 56 54 51 50 50 50 51 50 49 49 49 48 48 49 50 49 47 49 51 52 52 54 54 52 52 54 55 54 53 57 60 62 65 68 70 75 81 86 88 90 90 84 75 70 71 74 77 79 75 70 69 66 62 64 64 58 53 53 51 47 43 40 40 41 40 39 40 40 38 36 35 34 34 35
58 57 54 54 54 55 56 58 59 60 59 56 54 50 47 48 48 46 47 47 44 43 44 44 43 43 44 44 44 47 49 49 50 49 46 43 43 45 47 44 42 46 50 52 53 56 59 63 68 74 78 80 81 80 72 64 62 66 71 74 73 69 69 68 63 63 65 60 55 54 51 48 45 44 44 44 42 41 41 42 42 40 37 36 36 36
56 54 51 51 53 51 51 54 55 57 57 51 45 44 45 46 44 43 45 44 39 37 38 39 39 40 41 42 43 46 46 45 45 43 40 40 40 40 42 43 43 45 47 47 48 50 53 55 58 60 62 64 66 68 65 59 58 62 65 68 70 68 68 68 65 62 63 61 57 55 54 52 50 48 47 47 46 43 42 43 45 44 40 39 38 37
53 50 47 46 47 45 46 48 49 51 50 43 38 40 42 42 41 42 43 41 37 35 37 39 40 41 40 40 42 43 41 38 38 39 41 46 47 45 44 46 47 48 48 47 47 48 49 51 53 54 56 56 55 56 58 57 59 64 66 67 70 70 68 68 66 62 61 61 59 59 58 57 53 49 47 47 45 43 41 41 44 46 44 41 40 39
47 46 44 44 44 44 45 46 44 46 46 39 37 39 37 37 39 40 41 41 38 37 37 38 40 40 38 38 40 41 38 35 36 40 45 49 48 45 45 45 46 45 44 44 44 44 44 45 48 50 52 52 50 50 53 55 59 66 70 70 72 72 70 69 67 64 62 61 60 61 62 60 56 49 45 46 43 40 39 38 40 45 46 43 41 41
44 44 46 48 47 45 46 47 46 46 43 37 35 35 34 35 38 39 38 38 37 37 37 38 40 42 42 42 43 44 42 42 42 42 44 48 48 44 43 44 43 41 40 41 41 41 42 43 44 46 47 48 47 47 49 52 57 65 72 73 73 73 72 72 70 67 66 63 61 61 62 61 59 52 48 46 43 39 39 38 37 42 46 45 44 43
44 43 44 45 44 42 42 44 44 43 40 36 36 36 33 36 41 39 37 38 40 40 39 39 39 41 43 45 46 46 45 46 48 45 44 46 46 43 42 43 42 41 41 42 43 42 43 43 43 43 43 43 44 45 46 50 54 61 69 74 76 74 74 74 72 68 66 65 63 62 61 60 58 56 54 52 47 43 43 41 38 41 46 48 46 44
43 42 42 42 41 39 40 42 42 41 38 36 36 36 36 40 43 41 38 41 43 43 43 43 42 42 44 46 48 48 46 46 48 47 45 43 43 42 41 41 40 39 40 42 43 42 42 43 42 43 42 41 42 42 44 48 52 58 64 70 75 76 74 73 72 68 65 66 65 63 63 61 57 55 55 55 51 47 46 45 42 40 43 47 47 45
42 42 41 41 41 41 43 43 40 37 36 35 35 37 38 39 40 39 39 41 42 42 42 43 43 43 45 47 49 50 49 47 47 47 46 45 43 41 39 39 40 39 40 42 42 41 41 41 41 41 41 40 41 41 43 46 50 55 61 65 69 72 73 73 72 69 66 65 65 64 64 63 59 55 54 55 55 50 46 46 45 41 40 42 45 45
44 43 42 43 44 45 47 45 40 38 39 39 39 39 38 38 40 42 43 43 43 44 44 45 44 44 45 47 48 49 49 48 48 47 47 47 45 42 41 40 39 38 40 41 41 40 40 40 40 40 40 39 39 40 42 45 48 52 57 62 65 67 69 72 74 72 69 67 65 64 64 64 61 57 54 57 59 56 50 46 45 44 41 41 44 47
47 46 47 49 50 50 49 46 43 43 45 46 46 46 44 44 46 47 47 46 45 46 46 47 48 47 46 46 45 45 46 46 46 44 44 44 44 43 43 43 41 38 37 39 40 41 42 42 42 41 41 40 40 40 41 44 47 49 53 58 62 64 65 68 72 73 72 71 68 66 65 64 63 59 57 57 59 58 52 49 48 47 44 42 42 43
49 48 49 52 55 55 53 49 46 48 51 51 51 50 48 49 50 50 49 49 48 48 48 48 49 50 50 49 48 48 47 47 47 47 46 45 44 43 45 46 44 42 40 40 42 43 44 44 44 43 42 41 40 40 41 43 45 48 51 55 58 59 61 65 69 71 71 71 71 69 66 64 63 61 59 58 59 58 54 52 53 52 48 46 44 39
51 51 53 55 55 55 55 51 48 50 52 51 50 50 49 50 51 51 52 53 51 50 52 53 54 54 53 52 52 52 52 52 52 51 50 49 48 48 48 49 47 46 46 46 45 45 45 44 45 44 42 41 40 39 40 42 45 46 49 52 54 54 56 62 67 69 69 69 68 67 65 63 64 63 61 61 61 59 55 54 56 56 53 50 48 43
52 53 54 56 55 55 55 52 48 48 50 48 46 47 47 47 49 50 52 53 52 52 53 54 54 54 54 54 54 55 55 56 56 55 54 54 53 52 52 51 49 48 48 48 46 45 45 46 45 44 42 41 40 39 39 41 44 46 47 50 51 50 51 57 63 66 67 66 66 64 63 62 63 64 63 63 62 60 57 54 55 56 57 57 55 51
54 54 54 55 56 56 55 52 48 48 49 48 46 46 47 48 50 51 52 53 52 51 52 51 51 51 52 53 54 55 56 57 58 58 57 57 56 56 55 54 52 50 50 49 47 45 45 47 47 45 43 41 40 39 38 39 42 45 46 48 49 48 47 51 57 60 61 62 63 62 63 63 63 63 64 65 63 61 58 55 53 53 53 54 56 55
53 54 54 56 56 55 53 51 49 49 50 49 49 50 51 51 52 53 54 52 51 51 52 51 50 50 51 52 54 56 57 58 59 60 59 58 57 56 55 55 55 53 51 50 48 46 46 48 48 46 44 42 40 38 37 38 40 43 44 46 47 46 45 48 53 55 55 55 56 57 59 61 61 61 62 63 62 62 60 56 53 51 49 47 49 52
Wind_Direction
282 284 289 289 285 287 289 291 293 293 292 290 273 260 259 257 248 247 247 239 252 256 244 263 283 289 293 285 272 284 268 244 265 291 302 302 301 308 313 317 326 326 324 329 331 326 325 326 326 323 323 330 335 328 320 314 314 319 326 330 328 327 324 320 316 303 287 279 272 271 274 273 279 284 284 278 264 255 244 234 233 227 225 233 248 256
284 285 288 286 283 285 287 286 288 290 289 286 283 276 271 271 265 261 261 254 265 277 273 273 279 288 300 290 279 281 269 261 256 250 277 291 297 306 309 317 324 322 318 325 336 326 320 323 324 325 325 331 337 330 321 315 316 321 325 327 325 326 322 314 310 305 296 292 290 288 286 282 281 279 275 277 274 262 241 234 236 229 230 242 252 257
285 289 288 286 285 281 279 282 282 283 285 284 282 279 277 279 278 274 273 275 301 313 303 280 275 287 300 288 277 280 290 292 269 225 244 282 295 301 300 312 322 319 315 326 340 326 320 321 321 326 327 330 337 334 325 318 320 325 327 333 332 332 330 321 318 321 322 318 312 305 295 289 284 278 274 276 277 262 242 236 235 232 240 249 252 256
283 288 288 294 298 286 275 277 280 280 282 283 280 279 279 281 283 284 279 273 285 294 286 277 284 298 306 296 294 315 322 311 295 304 322 277 272 282 294 308 318 314 307 320 339 327 323 322 316 322 327 330 333 334 331 324 326 331 330 338 339 334 333 328 326 331 337 335 322 309 298 292 286 281 278 276 273 259 242 235 231 234 246 249 249 251
283 285 281 281 282 277 274 273 278 282 283 284 283 281 284 286 285 283 277 262 239 233 243 266 288 302 312 310 302 291 278 266 276 286 271 260 257 265 287 297 308 310 301 307 331 325 321 320 316 318 323 328 330 328 330 329 330 333 332 336 338 332 328 324 324 331 340 341 328 313 303 295 286 282 280 272 265 260 251 245 241 245 249 246 245 246
281 282 277 260 245 260 277 273 272 280 280 281 282 285 289 287 284 282 280 275 255 243 254 273 289 294 292 282 278 280 272 253 254 253 240 258 281 292 294 294 298 298 292 297 314 319 317 318 315 314 319 326 326 323 325 328 330 333 333 335 338 334 326 319 318 323 332 335 330 322 310 297 291 289 283 269 259 258 257 253 249 250 249 244 243 245
280 280 274 264 255 267 281 275 273 279 279 278 276 272 267 262 265 269 274 278 273 270 274 272 273 279 278 269 274 288 294 274 261 262 253 251 273 291 295 302 303 298 292 295 301 312 313 313 309 309 314 320 322 321 322 326 330 335 336 338 345 343 334 326 318 316 321 324 328 327 314 299 295 294 286 272 262 256 251 248 247 249 248 243 240 241
284 281 271 265 264 266 267 267 274 278 280 284 284 278 261 255 265 272 273 277 278 279 279 271 262 268 276 282 280 284 297 307 280 263 263 270 280 272 261 276 291 292 290 286 288 304 305 301 300 299 301 308 318 320 321 326 330 337 342 343 350 353 350 342 329 318 317 318 322 325 318 302 290 290 289 277 266 255 248 247 248 249 247 242 238 238
278 278 275 265 263 268 264 264 275 275 274 272 268 273 272 269 277 280 277 277 278 278 276 273 269 268 273 273 272 279 291 305 273 256 262 299 332 298 240 237 266 276 279 279 285 288 285 289 289 285 288 293 300 312 318 324 329 337 348 350 352 357 357 355 350 332 320 315 315 318 319 310 295 288 287 282 274 264 259 255 249 246 243 240 239 240
274 276 274 260 254 266 269 266 271 274 274 265 259 269 276 274 276 279 278 278 277 273 271 271 266 264 268 268 263 270 281 279 259 257 258 241 229 243 234 230 249 263 269 274 280 276 270 278 279 275 276 278 277 284 300 309 321 334 345 350 351 355 354 355 359 351 337 321 309 308 312 311 306 296 285 281 278 272 270 262 248 242 240 239 239 240
275 272 271 268 265 268 270 264 259 263 271 271 273 279 278 274 277 280 279 276 271 270 273 278 273 265 267 269 258 250 266 277 265 249 238 223 217 234 247 248 246 258 270 278 288 290 283 280 282 281 276 271 269 262 263 285 301 316 330 342 345 349 349 348 354 357 353 340 314 301 300 301 306 306 302 290 278 275 280 276 252 238 236 238 237 237
277 271 267 271 272 272 273 270 262 262 268 273 278 282 279 277 278 276 275 272 269 272 279 283 275 266 263 263 262 254 253 258 254 245 242 244 243 247 259 266 263 269 281 289 298 298 290 284 286 287 284 283 278 266 258 259 272 289 301 317 328 338 342 341 345 349 353 354 339 311 297 297 300 305 311 303 288 285 288 296 260 230 230 237 239 239
275 272 266 263 265 269 273 273 267 260 264 272 277 277 277 279 278 273 270 266 265 270 270 262 255 255 257 254 253 257 245 235 239 245 249 258 265 266 270 276 276 279 282 283 290 294 288 280 277 280 284 286 282 276 269 259 257 265 274 285 303 316 326 333 335 337 343 351 351 335 310 299 299 302 304 298 297 297 292 308 284 214 224 234 238 241
273 272 269 263 261 257 258 270 270 260 260 264 265 266 267 272 275 274 270 265 265 268 264 257 251 248 251 249 235 229 235 234 233 238 251 266 274 276 274 273 273 274 274 273 279 285 283 278 276 275 276 276 273 271 271 268 262 257 260 269 278 290 302 315 323 326 330 337 345 345 331 312 301 299 298 291 289 299 296 292 266 186 203 215 224 231
274 273 272 270 268 263 260 270 277 269 262 257 257 261 260 261 266 267 267 267 267 265 263 260 256 254 257 258 251 237 237 243 244 244 258 271 274 274 273 271 269 269 270 270 272 277 278 279 281 276 272 271 267 263 266 269 267 260 257 260 266 275 283 291 302 311 316 319 328 337 338 327 309 296 291 286 277 282 290 275 242 198 189 195 199 190
276 277 276 273 274 273 267 266 270 271 266 259 259 263 261 262 264 264 266 268 270 269 268 267 265 267 270 268 264 255 249 253 256 255 263 274 274 271 270 270 269 269 271 270 270 273 276 276 276 272 269 268 266 264 264 267 267 261 254 252 258 265 271 277 283 294 302 304 309 319 328 330 319 300 286 279 267 260 264 260 238 220 206 193 188 180
277 278 277 274 274 274 271 267 264 266 269 267 266 266 268 269 267 267 268 269 270 271 272 275 276 277 277 272 270 268 262 261 265 265 266 270 266 259 263 268 264 267 277 280 277 275 274 274 273 269 266 265 265 265 265 267 267 263 254 248 249 255 263 269 274 279 285 289 292 298 308 318 319 310 294 280 266 249 245 246 238 228 219 204 191 184
277 277 276 274 271 269 270 269 264 264 268 271 271 270 270 269 265 264 268 269 271 272 274 276 277 277 277 273 271 271 268 265 268 273 272 262 254 254 259 261 258 263 275 283 283 277 274 273 272 271 268 264 263 263 265 269 269 266 260 251 244 246 254 261 267 271 271 275 280 282 289 300 307 309 304 291 276 256 239 238 238 233 224 215 207 198
275 276 278 275 269 267 268 267 265 266 267 269 270 269 266 263 262 262 266 270 271 272 273 273 272 273 271 269 268 269 269 268 272 278 274 257 254 260 262 261 262 267 274 278 277 277 274 271 269 270 269 265 263 262 263 266 266 263 260 257 251 245 246 252 258 263 264 265 270 275 276 281 290 298 301 299 288 268 245 231 229 230 227 221 217 210
273 274 279 276 268 264 263 262 265 267 269 271 272 270 266 261 259 259 262 267 270 271 272 272 270 269 267 264 265 268 271 273 275 279 276 270 270 268 264 265 266 269 275 276 272 275 277 275 272 270 269 266 264 263 261 259 258 256 256 260 260 251 245 245 248 253 257 257 258 265 267 268 274 283 291 295 291 277 256 230 219 219 218 215 214 210
271 270 274 275 268 262 261 263 266 267 270 274 271 264 260 261 260 257 256 260 264 267 270 270 268 266 266 266 267 268 270 272 274 276 276 277 277 269 265 269 270 273 279 279 274 274 275 278 280 278 275 272 268 266 263 258 255 255 257 259 260 256 248 242 241 244 248 250 251 254 258 260 262 268 276 283 285 279 259 237 218 209 204 202 199 195
267 265 269 273 270 265 265 266 267 265 265 265 259 251 250 258 261 259 258 259 259 261 265 267 264 262 263 266 269 269 266 268 272 273 272 273 273 270 268 268 270 274 280 282 278 278 277 279 282 282 282 279 274 272 269 264 258 252 250 248 247 249 250 244 238 238 240 243 246 248 251 252 254 258 262 268 274 272 259 241 224 210 202 191 182 178
265 264 268 273 273 269 265 263 262 261 258 258 262 262 258 260 263 264 265 264 260 258 258 258 259 259 262 266 272 273 270 270 270 269 271 272 272 273 271 269 272 277 281 282 279 278 280 282 282 281 281 281 279 276 273 271 264 254 250 250 244 242 244 242 237 234 235 238 241 244 246 247 249 252 253 256 261 262 256 244 231 221 207 188 178 178
267 266 269 273 273 270 266 262 259 258 258 260 266 268 265 262 262 263 264 263 260 256 254 255 258 260 262 264 268 269 270 272 271 269 271 271 271 274 275 274 276 277 278 277 276 277 280 282 281 277 278 282 282 280 276 274 271 264 260 262 256 246 240 237 234 232 231 234 238 242 244 245 246 249 250 251 252 252 250 246 239 230 216 199 193 191
269 268 270 272 271 269 268 265 262 259 258 258 259 263 265 265 263 260 259 260 261 260 258 259 259 260 261 261 261 263 266 268 269 270 272 272 273 276 277 274 272 272 275 274 273 276 278 279 278 273 272 278 280 281 280 277 276 273 268 264 262 254 245 238 235 233 233 233 236 240 243 245 245 246 249 249 248 247 245 243 241 237 227 216 210 209
270 268 268 267 267 269 268 265 261 257 255 255 258 262 264 264 263 261 259 258 260 262 261 260 260 259 259 260 259 260 263 265 265 267 268 271 274 275 275 274 271 271 274 274 270 270 273 275 277 275 273 275 277 278 280 279 278 279 275 267 260 254 251 247 242 243 244 242 241 243 244 245 245 245 246 246 246 245 242 240 240 239 235 229 224 223
268 267 266 265 266 266 265 261 258 256 256 259 263 266 265 262 261 260 259 259 261 262 261 260 261 259 257 258 259 259 261 264 265 266 267 268 271 273 274 275 274 272 273 273 269 267 269 271 275 277 276 275 276 277 278 279 279 279 279 274 264 254 252 252 251 250 250 246 244 246 247 248 248 246 244 243 242 241 239 237 238 239 239 236 233 232
267 266 265 265 265 264 263 261 259 258 258 259 262 265 265 264 262 261 261 261 262 262 261 259 261 261 257 256 259 262 263 264 266 266 267 267 270 273 274 274 274 273 273 274 273 271 270 271 274 279 280 279 279 277 277 278 279 279 278 277 273 263 254 253 255 254 252 248 245 246 249 251 250 248 245 241 239 238 237 235 235 237 239 238 237 238
269 267 265 263 263 264 263 262 260 258 257 258 260 262 264 264 263 263 262 262 262 262 263 261 261 263 262 259 260 263 264 264 265 265 264 265 267 270 271 271 272 273 273 274 276 276 274 274 274 276 278 278 278 278 277 277 277 277 277 276 277 274 264 255 252 252 252 251 248 245 246 249 250 250 248 243 238 236 235 235 234 235 237 237 237 238
273 271 268 264 263 264 264 263 261 259 259 260 260 261 262 262 261 261 262 263 263 264 265 264 263 264 264 263 263 264 264 264 264 264 265 265 264 264 265 267 269 271 271 272 275 275 274 274 273 273 273 273 274 275 276 276 275 275 276 275 274 275 272 261 252 250 250 251 249 245 242 244 246 249 249 246 240 236 234 234 234 234 235 236 236 237
273 272 270 268 266 266 265 262 260 261 262 262 262 263 262 261 259 259 261 262 262 263 264 264 263 263 264 266 267 266 266 266 266 266 266 266 266 265 265 266 266 268 270 273 274 272 271 272 272 272 274 274 274 273 273 273 273 272 273 274 271 270 271 265 256 251 250 249 247 243 240 240 241 243 245 243 238 235 233 232 233 234 235 236 237 238
272 273 273 272 271 270 268 266 265 264 262 261 262 263 263 262 262 262 262 261 261 261 261 260 261 263 264 266 267 267 267 268 267 267 267 267 267 268 268 268 269 269 270 272 272 270 270 270 270 272 275 275 274 273 272 271 270 270 270 271 270 267 266 264 258 251 247 246 244 241 239 238 237 238 240 238 234 232 232 230 231 232 234 237 239 239
271 272 272 271 271 270 269 270 271 269 264 263 265 266 265 266 266 265 263 262 263 264 264 264 264 265 265 265 265 266 266 266 268 269 268 267 268 270 272 273 274 274 273 272 272 270 270 270 269 270 273 274 273 272 271 269 268 268 267 267 268 266 261 260 256 250 247 246 244 242 240 238 236 235 235 235 234 231 230 230 230 231 233 236 239 240
270 270 270 271 271 270 269 272 274 270 265 266 269 270 269 268 268 269 268 266 267 269 270 271 270 269 267 265 265 265 265 265 267 268 269 269 271 275 276 276 276 277 276 275 274 272 271 271 270 269 270 272 273 271 270 268 266 266 265 265 266 265 259 256 254 250 248 247 247 246 243 240 238 234 231 232 233 232 232 231 230 230 231 234 237 239
269 269 270 271 271 270 270 270 271 269 268 270 271 270 269 269 270 272 272 272 271 272 273 274 274 272 270 267 266 266 267 267 268 270 273 275 275 275 276 276 276 276 276 276 275 274 273 271 270 269 268 269 270 270 269 267 265 264 263 262 263 262 257 253 252 250 248 246 246 247 247 245 242 238 233 230 229 231 234 233 231 230 230 232 234 236
269 269 270 270 270 270 270 269 269 271 273 273 271 271 272 274 274 274 273 271 270 272 273 273 273 272 270 269 269 268 270 272 273 275 277 277 276 274 274 273 273 272 273 273 272 271 270 267 266 265 265 265 266 267 265 263 261 260 261 260 259 257 254 251 250 248 246 245 244 245 246 245 243 239 234 231 228 229 232 233 233 232 231 231 232 233
270 269 270 270 269 270 271 270 270 272 272 272 273 275 276 277 277 275 272 269 269 272 273 271 269 268 268 270 270 271 273 276 277 277 276 273 271 271 270 268 267 268 268 267 267 264 262 261 260 260 260 260 261 261 260 256 252 251 254 255 254 251 249 249 248 247 245 244 243 243 242 241 240 237 234 232 230 229 229 230 232 232 230 231 232 233
270 268 268 269 269 269 269 269 269 270 271 273 275 276 275 275 275 274 273 272 271 270 270 268 267 266 267 268 268 271 274 275 274 275 272 267 265 265 267 268 266 267 267 265 264 261 258 258 257 256 256 256 256 257 255 249 242 239 242 247 248 245 243 245 246 246 244 242 242 242 241 240 240 238 236 233 229 227 225 225 227 228 227 227 228 230
274 274 272 270 268 266 264 266 270 271 273 275 273 271 272 273 271 270 270 271 270 267 265 265 265 266 268 268 267 269 273 272 269 267 265 263 263 264 266 268 267 266 265 264 262 260 259 259 257 256 257 257 256 255 252 244 236 231 231 237 241 241 239 240 243 244 241 240 240 241 241 242 241 239 237 234 229 225 223 222 222 223 224 224 224 225
274 275 273 270 268 267 266 269 272 273 275 277 271 268 270 271 269 267 266 269 269 266 263 262 264 266 266 266 266 266 268 267 265 262 260 261 263 264 265 266 265 265 264 264 263 262 262 261 259 259 259 259 258 256 252 245 235 228 225 229 235 237 236 237 240 241 240 238 238 239 241 242 241 239 236 235 232 227 223 221 220 220 220 222 223 224
268 268 267 267 269 270 271 273 273 272 275 276 270 267 268 269 267 265 266 269 269 265 263 263 264 263 260 260 263 263 260 259 259 259 259 260 261 262 264 265 265 264 265 266 266 266 264 263 262 261 261 261 259 256 252 248 239 230 225 225 229 233 235 236 237 239 240 240 239 238 238 240 241 239 236 235 235 232 227 223 222 222 222 222 223 224
268 266 266 269 270 270 271 272 271 271 272 272 270 269 267 265 264 264 264 265 265 266 266 265 262 260 258 258 259 260 258 256 256 257 259 258 259 260 262 263 263 263 264 265 266 266 265 264 263 263 262 261 260 256 252 248 243 236 230 226 227 230 233 235 236 236 238 241 241 238 237 239 241 240 238 237 238 238 234 229 229 230 227 224 223 224
269 267 266 268 268 268 268 268 270 272 274 273 269 266 261 258 259 261 262 262 263 265 265 263 260 259 258 257 257 259 259 257 257 259 260 259 260 261 260 259 260 261 263 263 264 265 265 265 264 264 262 261 259 256 252 247 244 240 235 230 230 231 232 233 236 235 235 239 241 240 236 236 238 240 240 239 238 237 236 233 232 233 229 224 222 223
267 266 267 267 265 265 266 267 269 272 272 268 264 261 259 258 259 260 261 260 260 260 260 262 262 261 260 260 259 260 261 260 260 261 260 260 261 262 262 260 259 259 261 262 263 265 265 265 265 264 263 261 259 257 253 248 244 242 239 235 234 234 232 232 234 235 234 236 240 241 237 234 234 238 240 238 237 236 234 232 232 232 231 226 223 224
266 265 266 266 264 263 263 264 264 264 264 263 262 261 262 263 262 261 261 260 260 261 262 262 262 261 262 262 261 261 262 261 261 261 260 258 259 261 263 263 262 261 260 261 262 263 264 265 264 263 263 262 260 257 254 251 246 243 240 238 237 237 234 232 232 234 234 234 237 240 239 235 232 233 237 239 239 238 235 232 231 233 234 232 227 225
266 265 264 264 263 262 261 261 261 261 261 262 263 263 263 264 264 264 265 265 263 262 262 261 260 260 261 262 260 259 260 259 258 260 260 258 257 260 262 262 263 263 261 260 263 265 265 265 264 264 264 264 263 259 255 252 249 245 242 240 240 239 237 234 232 234 235 235 235 237 239 237 234 233 236 239 240 240 237 234 234 234 235 236 233 228
267 266 265 264 263 262 261 260 260 261 261 261 262 263 263 262 263 266 267 266 263 261 261 261 261 260 260 259 258 258 261 261 259 260 261 260 261 264 264 262 262 264 263 262 265 268 269 266 264 265 265 265 264 261 256 254 251 247 244 242 242 242 239 236 234 234 235 236 236 236 238 238 236 234 235 237 240 241 239 237 237 236 234 235 236 234
267 266 266 266 266 265 264 264 264 264 266 266 265 265 264 264 264 265 265 263 262 261 261 261 261 261 260 260 260 261 263 263 262 261 262 263 265 266 266 265 265 265 264 264 266 269 269 267 265 265 265 265 265 263 258 254 252 249 246 244 244 244 240 237 235 234 234 236 237 237 238 239 238 236 236 237 239 241 240 238 237 236 234 234 235 236
267 266 266 267 267 267 269 270 270 270 271 271 269 267 265 264 263 262 262 262 262 262 262 263 264 265 264 264 264 265 265 265 265 264 265 266 266 265 264 264 264 264 265 265 265 266 266 266 266 267 265 265 266 265 260 255 252 250 248 247 246 245 241 236 235 235 234 235 236 236 236 238 238 237 237 237 238 240 242 241 240 239 239 237 237 240
267 267 267 267 266 267 269 271 272 272 272 271 269 268 265 263 262 261 262 264 265 266 267 268 268 269 269 268 268 267 267 267 267 266 264 264 264 263 263 263 263 263 264 265 264 264 264 264 265 267 266 266 267 266 262 256 252 250 248 248 248 246 241 235 234 235 234 234 235 236 236 237 238 238 239 238 238 238 241 243 244 245 244 240 238 241
266 266 266 265 266 267 269 270 270 270 269 268 268 268 266 265 265 265 266 267 269 270 270 271 270 271 271 271 270 269 269 268 268 267 266 264 263 263 263 263 263 263 262 263 263 262 261 262 264 266 267 266 267 266 262 257 253 250 248 248 248 247 241 235 233 233 233 232 234 237 238 238 238 238 239 239 239 239 240 241 243 244 244 240 238 241
Height
5828 5829 5828 5828 5827 5826 5827 5827 5826 5826 5826 5826 5826 5826 5826 5825 5825 5826 5826 5827 5827 5826 5826 5825 5821 5820 5819 5818 5818 5819 5819 5819 5819 5818 5815 5810 5808 5808 5806 5804 5803 5803 5802 5802 5801 5800 5800 5799 5798 5798 5798 5798 5797 5796 5796 5796 5796 5797 5798 5797 5796 5796 5795 5795 5795 5794 5793 5792 5791 5791 5791 5791 5791 5791 5792 5792 5793 5794 5797 5799 5801 5802 5804 5805 5806 5807
5826 5828 5827 5825 5825 5825 5825 5825 5824 5825 5825 5825 5825 5824 5824 5824 5823 5824 5823 5824 5824 5823 5823 5823 5820 5818 5817 5816 5816 5817 5818 5818 5817 5818 5817 5812 5807 5806 5806 5803 5802 5801 5801 5802 5802 5801 5800 5800 5799 5798 5797 5797 5796 5795 5795 5795 5794 5795 5796 5796 5795 5795 5794 5793 5793 5793 5792 5791 5790 5790 5790 5790 5790 5790 5790 5791 5791 5792 5794 5797 5799 5801 5802 5804 5804 5805
5823 5825 5825 5823 5823 5823 5823 5823 5823 5823 5823 5823 5823 5822 5823 5822 5821 5821 5821 5822 5822 5822 5821 5821 5818 5816 5816 5815 5814 5815 5815 5814 5813 5814 5815 5813 5808 5805 5804 5803 5802 5801 5800 5801 5802 5802 5801 5800 5799 5798 5797 5796 5796 5795 5795 5794 5793 5793 5793 5793 5793 5792 5792 5790 5790 5790 5790 5790 5789 5788 5788 5788 5789 5789 5790 5791 5791 5792 5794 5796 5797 5799 5801 5802 5803 5804
5821 5823 5823 5821 5821 5821 5821 5821 5821 5821 5821 5821 5821 5820 5820 5820 5820 5819 5820 5820 5821 5822 5822 5819 5816 5814 5814 5813 5813 5814 5814 5814 5813 5812 5814 5814 5810 5805 5803 5802 5802 5800 5799 5799 5801 5801 5801 5800 5799 5797 5796 5796 5795 5795 5794 5794 5794 5793 5792 5792 5791 5790 5789 5788 5787 5788 5789 5789 5788 5787 5787 5787 5788 5788 5789 5791 5791 5792 5793 5795 5796 5798 5800 5801 5802 5803
5819 5822 5822 5821 5822 5822 5820 5820 5819 5819 5819 5819 5819 5818 5818 5818 5818 5818 5817 5817 5818 5818 5818 5817 5814 5812 5813 5813 5813 5813 5814 5814 5814 5814 5815 5813 5809 5805 5804 5802 5802 5801 5798 5798 5799 5800 5800 5799 5798 5797 5796 5795 5795 5794 5794 5794 5794 5793 5792 5792 5791 5789 5788 5787 5786 5787 5788 5789 5788 5787 5786 5786 5787 5787 5788 5790 5790 5792 5794 5795 5796 5797 5799 5799 5800 5801
5817 5819 5820 5819 5820 5821 5819 5818 5818 5817 5816 5817 5817 5816 5817 5817 5817 5816 5814 5814 5814 5814 5815 5815 5813 5812 5814 5814 5813 5811 5811 5812 5811 5811 5812 5811 5806 5804 5803 5801 5800 5800 5798 5797 5798 5799 5798 5798 5797 5797 5796 5795 5795 5794 5794 5794 5793 5793 5792 5792 5791 5790 5789 5788 5787 5787 5787 5788 5788 5787 5786 5786 5786 5787 5788 5789 5790 5791 5793 5795 5795 5796 5797 5797 5798 5799
5815 5817 5817 5817 5818 5818 5817 5816 5815 5814 5813 5814 5815 5815 5815 5816 5815 5814 5812 5812 5811 5812 5813 5813 5812 5811 5812 5813 5812 5809 5809 5809 5809 5808 5808 5808 5806 5804 5802 5800 5798 5798 5797 5795 5797 5798 5797 5796 5796 5796 5796 5795 5794 5794 5793 5793 5793 5793 5792 5792 5791 5790 5789 5788 5787 5787 5787 5787 5787 5787 5786 5786 5786 5786 5787 5788 5788 5790 5791 5792 5794 5794 5795 5796 5797 5798
5814 5814 5814 5814 5814 5815 5815 5814 5813 5812 5811 5812 5813 5813 5813 5812 5811 5810 5810 5809 5809 5808 5809 5810 5811 5809 5809 5810 5811 5809 5806 5807 5807 5805 5804 5804 5805 5804 5803 5802 5799 5797 5796 5794 5795 5797 5796 5795 5795 5795 5795 5794 5793 5793 5793 5793 5792 5792 5792 5791 5791 5790 5789 5788 5787 5787 5786 5786 5787 5787 5786 5786 5786 5786 5786 5786 5787 5788 5790 5791 5792 5793 5794 5795 5797 5797
5811 5811 5811 5812 5811 5811 5811 5811 5810 5809 5809 5810 5812 5810 5809 5808 5806 5806 5807 5806 5806 5806 5805 5807 5809 5808 5806 5808 5809 5807 5805 5805 5805 5802 5801 5803 5803 5802 5802 5802 5800 5796 5795 5793 5793 5795 5795 5794 5794 5794 5794 5793 5792 5792 5792 5792 5791 5791 5791 5791 5790 5790 5789 5789 5788 5787 5786 5786 5785 5786 5786 5785 5785 5785 5785 5786 5787 5788 5789 5790 5790 5791 5793 5794 5795 5796
5808 5809 5808 5807 5808 5808 5808 5808 5808 5808 5808 5808 5808 5806 5805 5805 5804 5804 5804 5803 5803 5802 5801 5804 5806 5805 5804 5804 5806 5806 5803 5803 5802 5800 5800 5801 5801 5799 5798 5798 5797 5794 5792 5791 5791 5793 5794 5794 5793 5793 5793 5793 5792 5791 5790 5790 5790 5790 5790 5790 5790 5790 5789 5789 5788 5788 5786 5786 5785 5785 5785 5785 5785 5785 5786 5786 5787 5787 5788 5788 5788 5789 5791 5792 5794 5795
5805 5806 5804 5801 5803 5804 5804 5804 5805 5805 5804 5803 5802 5802 5802 5802 5801 5801 5800 5801 5800 5798 5798 5800 5802 5802 5801 5801 5802 5802 5801 5799 5798 5798 5796 5795 5795 5793 5792 5793 5794 5792 5791 5790 5790 5791 5793 5794 5793 5793 5793 5792 5792 5790 5789 5789 5789 5789 5789 5789 5789 5789 5789 5789 5788 5788 5787 5786 5785 5785 5785 5785 5785 5785 5786 5786 5786 5786 5786 5786 5786 5787 5789 5791 5792 5793
5800 5801 5800 5798 5798 5799 5798 5798 5800 5800 5800 5799 5799 5799 5798 5798 5798 5797 5797 5798 5796 5794 5796 5799 5799 5799 5797 5797 5798 5797 5796 5795 5793 5792 5790 5790 5791 5791 5790 5792 5792 5790 5790 5790 5789 5789 5791 5793 5793 5793 5793 5793 5793 5791 5790 5788 5788 5788 5788 5788 5789 5789 5789 5788 5788 5788 5787 5786 5785 5785 5785 5784 5785 5785 5785 5785 5785 5785 5785 5785 5785 5786 5788 5790 5791 5792
5795 5796 5797 5796 5796 5796 5795 5793 5794 5796 5796 5797 5797 5797 5796 5795 5795 5794 5794 5794 5792 5792 5795 5796 5795 5794 5793 5794 5795 5793 5790 5788 5787 5787 5788 5789 5790 5791 5791 5792 5790 5789 5788 5788 5788 5786 5787 5790 5792 5791 5791 5792 5792 5792 5791 5789 5788 5787 5787 5787 5788 5788 5788 5788 5788 5787 5787 5786 5786 5785 5784 5784 5784 5784 5785 5785 5784 5784 5784 5784 5784 5785 5787 5788 5789 5790
5791 5793 5793 5794 5794 5794 5793 5790 5791 5792 5794 5794 5795 5794 5793 5793 5792 5791 5790 5790 5790 5790 5791 5791 5790 5790 5790 5791 5792 5791 5787 5784 5784 5785 5787 5787 5788 5789 5789 5789 5788 5786 5785 5786 5787 5785 5783 5787 5790 5790 5789 5789 5790 5790 5791 5790 5788 5787 5786 5787 5787 5787 5787 5787 5787 5787 5787 5786 5786 5785 5784 5784 5783 5783 5784 5784 5784 5784 5784 5784 5784 5785 5786 5787 5788 5788
5788 5790 5791 5790 5790 5791 5791 5789 5789 5789 5790 5791 5791 5791 5790 5790 5789 5788 5787 5787 5786 5787 5787 5787 5787 5787 5788 5788 5789 5788 5785 5782 5782 5784 5785 5785 5785 5785 5785 5785 5785 5784 5783 5784 5785 5783 5781 5784 5787 5788 5787 5787 5788 5788 5789 5789 5788 5787 5786 5786 5786 5786 5786 5787 5787 5787 5787 5786 5786 5785 5785 5784 5783 5783 5783 5783 5783 5783 5784 5784 5784 5785 5786 5787 5788 5788
5784 5786 5788 5786 5785 5786 5787 5788 5787 5786 5786 5787 5788 5788 5787 5787 5787 5785 5784 5783 5783 5783 5782 5784 5784 5784 5785 5785 5785 5784 5782 5780 5780 5782 5783 5782 5782 5782 5781 5781 5781 5781 5781 5781 5782 5781 5779 5780 5783 5785 5785 5785 5785 5786 5786 5787 5787 5785 5784 5784 5784 5785 5785 5786 5786 5786 5786 5786 5786 5785 5785 5784 5784 5783 5783 5782 5783 5783 5783 5784 5784 5785 5786 5787 5787 5788
5781 5782 5783 5783 5783 5782 5782 5785 5784 5782 5782 5784 5785 5785 5784 5784 5784 5782 5780 5780 5780 5778 5778 5780 5780 5781 5782 5781 5780 5779 5778 5776 5775 5778 5781 5780 5779 5779 5778 5778 5778 5778 5778 5778 5778 5778 5777 5777 5778 5780 5782 5782 5782 5783 5784 5784 5784 5783 5783 5782 5782 5783 5784 5784 5785 5785 5785 5785 5785 5785 5784 5784 5784 5783 5783 5783 5783 5783 5783 5784 5784 5785 5786 5787 5787 5788
5777 5777 5779 5780 5780 5779 5778 5779 5780 5778 5778 5779 5781 5782 5782 5780 5780 5779 5776 5776 5776 5774 5774 5776 5777 5777 5778 5777 5776 5773 5772 5771 5771 5773 5775 5775 5774 5775 5775 5775 5776 5776 5776 5776 5775 5775 5775 5774 5774 5775 5778 5779 5779 5780 5781 5781 5782 5782 5781 5780 5780 5780 5781 5782 5783 5784 5784 5784 5784 5784 5784 5784 5783 5783 5783 5783 5783 5783 5784 5784 5784 5785 5785 5786 5786 5787
5773 5771 5773 5776 5775 5775 5775 5774 5773 5774 5774 5775 5778 5778 5777 5776 5776 5775 5773 5772 5772 5770 5770 5772 5773 5774 5774 5773 5771 5768 5766 5767 5767 5768 5769 5770 5770 5771 5770 5771 5772 5772 5773 5773 5773 5773 5772 5772 5772 5772 5774 5775 5775 5776 5778 5779 5780 5780 5780 5779 5778 5778 5779 5780 5781 5781 5782 5783 5783 5783 5783 5783 5783 5783 5783 5783 5783 5783 5783 5784 5784 5784 5784 5785 5785 5786
5769 5766 5765 5769 5771 5771 5770 5769 5769 5769 5770 5772 5773 5772 5771 5770 5770 5770 5769 5769 5768 5767 5766 5766 5768 5770 5769 5768 5768 5765 5763 5763 5764 5764 5764 5763 5764 5766 5765 5766 5767 5768 5769 5769 5769 5769 5769 5769 5769 5769 5770 5771 5771 5772 5774 5777 5777 5778 5778 5777 5776 5776 5776 5776 5777 5778 5780 5781 5781 5782 5782 5782 5782 5782 5782 5782 5782 5783 5783 5783 5783 5783 5783 5784 5784 5785
5763 5761 5759 5761 5765 5766 5764 5764 5766 5766 5767 5768 5768 5767 5766 5765 5765 5765 5765 5765 5764 5763 5763 5762 5763 5765 5764 5763 5764 5762 5761 5760 5760 5761 5759 5756 5757 5758 5760 5761 5762 5763 5764 5765 5766 5766 5766 5766 5766 5766 5766 5767 5768 5768 5769 5771 5773 5774 5774 5774 5773 5773 5773 5773 5774 5775 5776 5778 5779 5780 5780 5780 5781 5781 5781 5781 5781 5782 5782 5782 5782 5782 5782 5783 5783 5785
5756 5754 5753 5754 5758 5761 5760 5759 5761 5761 5763 5764 5762 5762 5761 5759 5760 5759 5759 5761 5761 5760 5760 5758 5758 5760 5759 5758 5759 5758 5758 5757 5757 5756 5755 5754 5752 5751 5754 5757 5758 5758 5759 5760 5761 5762 5762 5763 5763 5763 5763 5763 5764 5764 5764 5766 5768 5768 5767 5765 5765 5766 5768 5769 5770 5771 5772 5774 5776 5777 5778 5779 5779 5779 5780 5780 5780 5780 5781 5781 5781 5781 5782 5782 5783 5784
5749 5748 5748 5749 5753 5755 5755 5755 5755 5755 5756 5755 5753 5754 5755 5754 5754 5753 5753 5756 5756 5755 5755 5753 5752 5754 5756 5755 5754 5752 5752 5753 5753 5752 5751 5750 5747 5744 5746 5751 5753 5754 5755 5756 5756 5757 5758 5759 5759 5760 5760 5760 5760 5760 5759 5760 5761 5761 5761 5761 5760 5760 5761 5763 5764 5766 5768 5770 5772 5774 5775 5776 5777 5778 5778 5778 5779 5779 5780 5780 5780 5781 5781 5782 5783 5784
5744 5744 5744 5745 5746 5748 5749 5749 5749 5748 5749 5748 5747 5747 5748 5748 5748 5748 5748 5748 5747 5747 5749 5747 5746 5750 5753 5753 5750 5747 5746 5746 5746 5747 5747 5745 5743 5741 5742 5744 5747 5750 5750 5750 5751 5751 5753 5754 5756 5757 5757 5757 5757 5757 5756 5755 5754 5754 5756 5760 5761 5761 5760 5759 5759 5760 5763 5766 5768 5770 5772 5774 5774 5775 5776 5777 5777 5778 5779 5779 5779 5780 5781 5782 5783 5783
5741 5741 5740 5740 5739 5740 5741 5742 5742 5742 5742 5742 5741 5739 5739 5741 5742 5742 5742 5740 5737 5740 5743 5741 5740 5745 5747 5748 5746 5743 5741 5741 5741 5741 5741 5740 5738 5738 5738 5737 5739 5743 5745 5745 5745 5745 5746 5748 5750 5751 5753 5754 5753 5754 5754 5752 5750 5750 5753 5757 5760 5760 5760 5759 5759 5758 5760 5762 5764 5767 5769 5770 5772 5773 5773 5774 5775 5776 5777 5778 5779 5779 5780 5781 5781 5782
5735 5735 5734 5733 5732 5733 5735 5736 5735 5734 5733 5731 5731 5732 5734 5735 5735 5734 5733 5732 5731 5733 5735 5733 5734 5738 5740 5740 5740 5739 5737 5735 5736 5735 5735 5736 5733 5731 5732 5731 5731 5736 5739 5738 5738 5739 5740 5741 5744 5745 5747 5749 5749 5750 5750 5748 5747 5747 5749 5753 5755 5756 5757 5759 5760 5759 5759 5760 5762 5764 5766 5767 5769 5769 5770 5771 5772 5773 5774 5776 5777 5778 5778 5779 5780 5781
5727 5727 5727 5725 5725 5726 5727 5728 5726 5724 5725 5724 5724 5726 5728 5728 5728 5727 5724 5724 5726 5727 5726 5727 5729 5730 5732 5733 5733 5734 5733 5730 5730 5730 5729 5730 5727 5724 5726 5726 5723 5726 5731 5730 5730 5733 5734 5735 5738 5740 5741 5743 5744 5745 5745 5744 5743 5744 5745 5747 5750 5752 5755 5757 5757 5756 5756 5757 5759 5761 5763 5765 5766 5766 5767 5767 5768 5770 5771 5773 5774 5775 5776 5777 5778 5779
5719 5719 5720 5718 5718 5718 5719 5720 5719 5718 5717 5717 5717 5718 5720 5720 5720 5718 5717 5718 5720 5717 5717 5723 5724 5720 5724 5729 5728 5728 5727 5725 5725 5725 5723 5723 5722 5719 5720 5720 5716 5716 5721 5723 5722 5724 5727 5731 5734 5735 5735 5735 5737 5739 5739 5738 5738 5739 5740 5741 5743 5748 5753 5754 5753 5752 5752 5753 5755 5758 5760 5762 5763 5763 5763 5764 5764 5766 5768 5769 5771 5772 5774 5775 5776 5777
5710 5710 5712 5711 5710 5711 5711 5711 5711 5711 5709 5710 5711 5712 5713 5712 5711 5709 5708 5711 5712 5708 5709 5716 5717 5712 5716 5721 5722 5721 5720 5717 5717 5716 5717 5718 5717 5714 5712 5712 5712 5710 5712 5715 5714 5714 5719 5724 5726 5729 5729 5730 5731 5732 5733 5733 5733 5734 5736 5736 5737 5741 5747 5750 5750 5749 5748 5749 5751 5753 5755 5756 5758 5760 5760 5760 5761 5762 5764 5766 5767 5769 5770 5772 5773 5774
5701 5702 5704 5703 5701 5703 5704 5702 5701 5702 5702 5703 5704 5705 5706 5705 5702 5700 5700 5703 5703 5701 5702 5707 5707 5705 5708 5712 5713 5713 5710 5708 5708 5708 5709 5710 5709 5707 5706 5706 5707 5705 5704 5707 5707 5706 5710 5713 5715 5719 5722 5723 5725 5726 5727 5727 5727 5728 5731 5732 5734 5736 5739 5744 5745 5743 5743 5744 5746 5747 5748 5749 5752 5755 5757 5757 5758 5758 5759 5761 5763 5765 5767 5768 5769 5770
5692 5693 5694 5693 5692 5696 5697 5694 5692 5693 5694 5694 5696 5698 5698 5696 5693 5693 5695 5697 5696 5694 5696 5698 5696 5697 5703 5704 5703 5702 5700 5699 5699 5698 5700 5700 5698 5699 5700 5700 5701 5700 5698 5698 5697 5698 5703 5702 5702 5708 5712 5714 5716 5719 5720 5721 5721 5722 5724 5727 5730 5732 5734 5736 5738 5737 5736 5737 5738 5739 5740 5742 5745 5748 5751 5753 5754 5754 5755 5757 5759 5761 5763 5765 5766 5767
5683 5683 5685 5684 5682 5687 5689 5685 5683 5686 5685 5685 5688 5690 5689 5687 5686 5688 5689 5688 5687 5686 5687 5688 5687 5692 5699 5697 5692 5691 5691 5690 5689 5688 5691 5691 5689 5689 5692 5692 5692 5692 5691 5689 5689 5692 5696 5693 5692 5696 5700 5702 5705 5709 5712 5714 5715 5715 5716 5719 5723 5727 5729 5729 5730 5729 5726 5726 5728 5730 5733 5735 5738 5740 5744 5747 5748 5749 5750 5752 5753 5756 5759 5761 5762 5764
5676 5675 5676 5675 5673 5676 5680 5675 5674 5675 5674 5676 5682 5684 5682 5681 5679 5678 5679 5678 5678 5678 5677 5678 5681 5686 5690 5688 5684 5682 5682 5681 5680 5679 5680 5681 5681 5682 5683 5682 5681 5679 5679 5680 5683 5686 5686 5684 5684 5686 5687 5689 5693 5698 5702 5706 5708 5709 5709 5712 5715 5720 5723 5722 5720 5717 5716 5717 5720 5724 5728 5730 5732 5734 5737 5740 5743 5744 5745 5747 5749 5752 5754 5757 5759 5760
5670 5668 5667 5666 5664 5666 5669 5668 5664 5661 5662 5670 5678 5677 5674 5673 5670 5667 5667 5669 5670 5670 5669 5669 5673 5677 5679 5678 5676 5674 5673 5674 5673 5670 5670 5673 5675 5674 5672 5671 5670 5668 5668 5671 5674 5674 5674 5675 5675 5676 5678 5679 5682 5686 5691 5695 5699 5701 5702 5705 5707 5711 5714 5714 5710 5708 5711 5716 5718 5721 5724 5726 5728 5729 5731 5734 5738 5739 5741 5743 5745 5747 5749 5752 5754 5757
5662 5661 5659 5659 5657 5657 5660 5659 5652 5648 5654 5665 5670 5667 5665 5664 5661 5659 5658 5661 5663 5663 5662 5662 5664 5666 5667 5667 5667 5665 5664 5664 5664 5663 5663 5664 5665 5664 5661 5661 5660 5659 5658 5660 5662 5663 5665 5667 5667 5668 5670 5672 5672 5674 5679 5684 5689 5693 5695 5697 5699 5702 5704 5704 5702 5704 5708 5714 5717 5719 5720 5722 5725 5727 5727 5729 5732 5734 5737 5739 5741 5743 5745 5747 5750 5752
5654 5653 5652 5651 5650 5649 5650 5649 5644 5642 5650 5657 5659 5659 5658 5655 5653 5652 5650 5653 5656 5656 5656 5656 5655 5655 5656 5657 5658 5657 5655 5654 5655 5656 5655 5653 5652 5652 5651 5651 5651 5650 5650 5651 5653 5655 5656 5656 5657 5659 5662 5664 5664 5664 5667 5673 5678 5682 5686 5688 5691 5693 5694 5694 5696 5699 5703 5708 5712 5713 5715 5718 5722 5724 5724 5725 5727 5729 5732 5735 5736 5738 5741 5743 5745 5746
5646 5645 5645 5643 5642 5642 5641 5640 5638 5638 5642 5648 5651 5653 5652 5647 5644 5643 5640 5644 5650 5650 5648 5647 5647 5646 5646 5647 5648 5647 5646 5646 5646 5647 5646 5643 5641 5642 5642 5643 5643 5643 5644 5645 5646 5648 5646 5645 5647 5650 5653 5654 5654 5654 5658 5663 5667 5671 5676 5679 5682 5685 5685 5685 5688 5693 5698 5703 5705 5706 5709 5713 5716 5718 5718 5720 5721 5722 5725 5728 5730 5732 5735 5737 5739 5741
5639 5639 5639 5636 5635 5637 5634 5631 5631 5630 5633 5643 5648 5647 5643 5639 5637 5634 5631 5636 5644 5643 5639 5638 5638 5637 5638 5638 5639 5638 5639 5640 5640 5640 5638 5635 5634 5634 5635 5636 5637 5637 5638 5639 5639 5639 5638 5639 5641 5642 5643 5643 5644 5645 5649 5653 5658 5661 5666 5669 5672 5676 5677 5677 5679 5685 5692 5697 5699 5699 5702 5706 5709 5712 5713 5714 5715 5716 5718 5720 5721 5724 5728 5731 5733 5735
5630 5631 5632 5628 5627 5630 5627 5624 5624 5623 5628 5638 5641 5638 5635 5632 5630 5628 5625 5629 5636 5635 5631 5631 5631 5629 5630 5631 5630 5631 5632 5633 5634 5634 5630 5627 5627 5629 5629 5631 5631 5630 5631 5631 5631 5631 5632 5634 5634 5634 5634 5635 5637 5638 5640 5644 5648 5652 5657 5660 5662 5666 5669 5670 5671 5677 5684 5690 5694 5693 5693 5696 5701 5706 5709 5710 5712 5713 5715 5715 5714 5715 5720 5724 5726 5729
5626 5624 5624 5621 5621 5623 5621 5618 5618 5617 5623 5631 5632 5629 5628 5625 5623 5621 5619 5622 5628 5627 5625 5625 5624 5624 5625 5625 5624 5625 5626 5627 5627 5627 5623 5620 5621 5623 5623 5624 5624 5623 5624 5624 5624 5625 5627 5627 5627 5626 5627 5628 5630 5631 5633 5635 5639 5643 5647 5651 5653 5657 5661 5662 5664 5669 5674 5680 5686 5687 5686 5688 5693 5699 5703 5705 5708 5710 5712 5712 5710 5708 5711 5717 5721 5723
5621 5619 5617 5616 5616 5617 5614 5612 5611 5611 5616 5623 5623 5621 5621 5619 5615 5614 5614 5617 5619 5618 5618 5618 5618 5618 5619 5618 5617 5618 5620 5619 5619 5619 5616 5614 5616 5617 5617 5617 5617 5617 5617 5617 5618 5619 5620 5620 5621 5621 5621 5622 5623 5625 5626 5628 5631 5634 5638 5642 5645 5649 5652 5654 5656 5661 5665 5670 5676 5680 5681 5681 5686 5693 5696 5699 5702 5705 5706 5708 5708 5706 5706 5710 5715 5718
5615 5613 5611 5610 5611 5610 5609 5607 5605 5605 5610 5615 5615 5614 5615 5612 5607 5607 5609 5610 5610 5610 5611 5611 5610 5611 5611 5610 5610 5611 5612 5612 5611 5611 5610 5609 5611 5612 5611 5610 5610 5611 5611 5612 5613 5614 5614 5614 5615 5615 5615 5616 5617 5618 5620 5621 5623 5626 5629 5634 5637 5640 5643 5645 5648 5653 5658 5661 5666 5672 5675 5676 5679 5685 5688 5691 5696 5700 5702 5704 5706 5706 5703 5703 5707 5712
5608 5606 5605 5605 5605 5604 5603 5601 5600 5601 5604 5607 5607 5607 5607 5603 5600 5601 5603 5603 5602 5602 5603 5602 5602 5603 5602 5602 5603 5603 5604 5604 5604 5604 5604 5604 5605 5606 5605 5605 5605 5606 5606 5606 5607 5608 5608 5608 5609 5610 5610 5611 5611 5612 5613 5614 5616 5618 5621 5625 5629 5631 5634 5637 5640 5645 5651 5654 5657 5663 5668 5672 5674 5678 5682 5686 5691 5695 5697 5699 5702 5703 5701 5699 5701 5706
5601 5599 5598 5599 5599 5598 5595 5595 5597 5597 5597 5598 5599 5598 5597 5596 5595 5595 5596 5595 5595 5595 5595 5595 5595 5595 5595 5595 5596 5596 5597 5598 5597 5597 5597 5598 5599 5599 5599 5599 5599 5600 5600 5600 5600 5601 5602 5602 5603 5604 5604 5605 5605 5606 5606 5607 5609 5610 5613 5617 5620 5622 5626 5630 5633 5637 5643 5648 5650 5655 5660 5665 5669 5673 5677 5681 5685 5688 5692 5694 5696 5699 5700 5699 5698 5700
5594 5594 5592 5591 5591 5590 5587 5588 5593 5593 5589 5589 5590 5591 5591 5591 5589 5588 5587 5588 5588 5589 5589 5588 5588 5588 5587 5587 5587 5589 5590 5590 5590 5589 5589 5591 5592 5593 5592 5592 5593 5594 5594 5594 5594 5595 5596 5596 5597 5598 5599 5599 5600 5600 5600 5601 5601 5603 5606 5609 5612 5614 5618 5622 5625 5629 5634 5640 5644 5648 5652 5657 5663 5668 5671 5675 5677 5682 5687 5689 5690 5692 5695 5697 5697 5697
5586 5586 5585 5582 5581 5581 5580 5582 5587 5586 5583 5583 5583 5583 5585 5584 5582 5580 5580 5581 5582 5582 5582 5581 5581 5581 5580 5579 5580 5581 5581 5582 5582 5582 5582 5583 5584 5586 5586 5586 5587 5588 5589 5589 5589 5589 5590 5590 5591 5591 5592 5593 5594 5594 5594 5594 5595 5597 5599 5602 5604 5607 5610 5614 5618 5622 5626 5632 5637 5642 5645 5649 5655 5661 5665 5669 5672 5676 5681 5684 5685 5687 5690 5692 5694 5695
5577 5577 5575 5573 5572 5571 5571 5576 5580 5577 5574 5575 5576 5576 5577 5576 5575 5574 5574 5573 5574 5574 5574 5574 5573 5573 5573 5573 5573 5574 5575 5575 5575 5575 5576 5576 5578 5579 5579 5579 5581 5583 5583 5583 5583 5583 5583 5584 5584 5585 5586 5587 5588 5588 5588 5589 5589 5590 5593 5595 5597 5599 5603 5606 5610 5614 5619 5624 5630 5636 5640 5643 5648 5654 5658 5661 5665 5669 5674 5678 5680 5681 5684 5687 5689 5691
5569 5568 5565 5564 5563 5561 5561 5568 5573 5570 5566 5567 5568 5568 5569 5568 5567 5567 5566 5564 5566 5566 5566 5565 5564 5564 5566 5566 5567 5568 5568 5568 5568 5568 5569 5570 5571 5572 5572 5572 5574 5576 5576 5576 5577 5577 5577 5577 5578 5578 5579 5580 5581 5582 5582 5583 5583 5584 5586 5588 5589 5592 5595 5599 5603 5607 5612 5617 5622 5630 5637 5640 5643 5647 5651 5655 5658 5661 5666 5671 5673 5676 5679 5681 5684 5686
5559 5558 5558 5556 5554 5553 5554 5559 5564 5561 5557 5558 5560 5560 5561 5559 5557 5556 5555 5555 5557 5557 5557 5557 5557 5558 5560 5560 5560 5560 5560 5560 5560 5560 5561 5561 5562 5563 5564 5565 5566 5568 5568 5569 5570 5571 5570 5570 5571 5572 5573 5574 5575 5575 5576 5577 5577 5578 5580 5581 5583 5585 5588 5592 5596 5600 5606 5612 5616 5624 5631 5634 5637 5641 5645 5649 5653 5656 5660 5665 5668 5670 5673 5676 5678 5681
5549 5549 5550 5548 5545 5545 5547 5551 5554 5551 5547 5548 5550 5550 5550 5549 5546 5546 5547 5548 5549 5550 5550 5551 5552 5552 5553 5553 5552 5552 5551 5551 5551 5551 5551 5552 5553 5555 5556 5557 5558 5560 5561 5562 5563 5564 5564 5564 5564 5565 5566 5567 5568 5569 5570 5571 5571 5572 5573 5575 5577 5579 5582 5586 5590 5594 5600 5606 5611 5617 5623 5627 5631 5635 5638 5642 5648 5652 5656 5659 5662 5664 5666 5670 5673 5675
5540 5540 5541 5538 5535 5537 5541 5543 5544 5541 5538 5539 5540 5539 5539 5539 5538 5538 5540 5542 5543 5544 5544 5544 5545 5545 5545 5545 5544 5543 5542 5543 5542 5541 5542 5544 5545 5547 5549 5549 5550 5551 5553 5554 5556 5557 5557 5557 5557 5558 5559 5560 5562 5563 5563 5564 5564 5565 5567 5569 5570 5573 5576 5580 5584 5588 5594 5600 5605 5610 5615 5620 5625 5629 5632 5636 5642 5646 5649 5653 5656 5658 5661 5663 5666 5669